Location: Gravenhurst
(44.9196°N, 79.3742°W)
Time: 15:55:27
(UTC-05:00)

Envisat - Pass Details

Date: 25 October 2019
Orbit: 764 x 766 km, 98.1° (Epoch: 18 November)

Event Time Altitude Azimuth Distance (km) Brightness Sun altitude
Rises 18:44:23 0° 149° (SSE) 3,220 6.0 -5.6°
Reaches altitude 10° 18:46:45 10° 144° (SE) 2,298 5.2 -6.0°
Maximum altitude 18:51:36 49° 70° (ENE) 989 3.2 -6.9°
Drops below altitude 10° 18:56:29 10° 357° (N) 2,313 5.4 -7.7°
Sets 18:58:52 0° 352° (N) 3,243 6.2 -8.1°
